Location: B�rgermoos
(47.6500°N, 9.0667°E)
Time: 08:38:28
(UTC+00:00)

Altair - All Passes

Search period start: 31 July 2021 00:00
Search period end: 10 August 2021 00:00
Orbit: 1502 x 1682 km, 47.2° (Epoch: 30 July)

Date Brightness Start Highest point End Pass type
(mag) Time Alt. Az. Time Alt. Az. Time Alt. Az.
31 Jul - 00:20:51 10° SSW 00:29:04 35° SE 00:37:05 10° ENE visible
31 Jul - 02:23:31 10° WSW 02:32:49 73° SSE 02:41:58 10° ENE visible
31 Jul - 04:28:10 10° W 04:37:28 88° S 04:46:41 10° E daylight
31 Jul - 06:32:55 10° WNW 06:41:54 62° SSW 06:50:56 10° SE daylight
31 Jul - 08:38:18 10° W 08:45:13 25° SW 08:52:13 10° S daylight
31 Jul - 23:55:58 10° SSW 00:04:00 32° SE 00:11:51 10° ENE visible
01 Aug - 01:58:22 10° WSW 02:07:41 71° SSE 02:16:48 10° ENE visible
01 Aug - 04:02:58 10° W 04:12:17 88° S 04:21:30 10° E daylight
01 Aug - 06:07:44 10° WNW 06:16:47 64° SSW 06:25:50 10° SE daylight
01 Aug - 08:12:59 10° W 08:20:12 27° SW 08:27:28 10° S daylight
01 Aug - 23:31:07 10° SSW 23:38:57 30° SE 23:46:36 10° E visible
02 Aug - 01:33:14 10° WSW 01:42:32 68° SSE 01:51:38 10° ENE visible
02 Aug - 03:37:46 10° W 03:47:07 89° S 03:56:20 10° E daylight
02 Aug - 05:42:33 10° WNW 05:51:39 67° SSW 06:00:44 10° SE daylight
02 Aug - 07:47:42 10° W 07:55:10 29° SW 08:02:40 10° S daylight
02 Aug - 23:06:17 10° S 23:13:54 28° SE 23:21:19 10° E visible
03 Aug - 01:08:06 10° SW 01:17:25 65° SSE 01:26:29 10° ENE visible
03 Aug - 03:12:34 10° W 03:21:56 88° S 03:31:09 10° E visible
03 Aug - 05:17:23 10° WNW 05:26:31 70° SSW 05:35:38 10° ESE daylight
03 Aug - 07:22:26 10° W 07:30:07 31° SW 07:37:52 10° SSE daylight
03 Aug - 22:41:30 10° S 22:48:52 26° SE 22:56:02 10° E visible
04 Aug - 00:42:59 10° SW 00:52:16 63° SSE 01:01:19 10° ENE visible
04 Aug - 02:47:22 10° W 02:56:46 88° S 03:06:00 10° E visible
04 Aug - 04:52:12 10° WNW 05:01:23 73° SSW 05:10:31 10° ESE daylight
04 Aug - 06:57:11 10° WNW 07:05:04 34° SW 07:13:00 10° SSE daylight
04 Aug - 22:16:45 10° S 22:23:49 24° SE 22:30:42 10° E visible
05 Aug - 00:17:52 10° SW 00:27:09 60° SSE 00:36:10 10° ENE visible
05 Aug - 02:22:10 10° W 02:31:35 88° S 02:40:49 10° E visible
05 Aug - 04:27:01 10° WNW 04:36:15 75° SSW 04:45:23 10° ESE daylight
05 Aug - 06:31:56 10° WNW 06:40:01 36° SW 06:48:07 10° SSE daylight
05 Aug - 21:52:04 10° S 21:58:47 22° SE 22:05:21 10° E visible
05 Aug - 23:52:47 10° SW 00:02:02 57° SSE 00:11:00 10° ENE visible
06 Aug - 01:56:57 10° W 02:06:25 87° S 02:15:39 10° E visible
06 Aug - 04:01:50 10° W 04:11:06 77° SSW 04:20:15 10° ESE daylight
06 Aug - 06:06:43 10° WNW 06:14:58 39° SW 06:23:12 10° SSE daylight
06 Aug - 21:27:26 10° S 21:33:46 20° SE 21:39:56 10° E visible
06 Aug - 23:27:42 10° SW 23:36:55 54° SSE 23:45:50 10° ENE visible
07 Aug - 01:31:45 10° WSW 01:41:14 86° S 01:50:29 10° E visible
07 Aug - 03:36:38 10° W 03:45:57 79° SSW 03:55:07 10° ESE visible
07 Aug - 05:41:30 10° WNW 05:49:54 42° SW 05:58:16 10° SSE daylight
07 Aug - 07:49:46 10° WSW 07:52:31 12° WSW 07:55:16 10° SW daylight
07 Aug - 21:02:52 10° SSE 21:08:44 18° SE 21:14:28 10° E visible
07 Aug - 23:02:38 10° SW 23:11:48 51° SSE 23:20:40 10° ENE visible
08 Aug - 01:06:33 10° WSW 01:16:04 85° S 01:25:19 10° E visible
08 Aug - 03:11:26 10° W 03:20:48 81° SSW 03:29:59 10° ESE visible
08 Aug - 05:16:17 10° WNW 05:24:50 44° SW 05:33:19 10° SSE daylight
08 Aug - 07:23:42 10° W 07:27:32 13° SW 07:31:23 10° SSW daylight
08 Aug - 20:38:24 10° SSE 20:43:43 16° SE 20:48:56 10° E visible
08 Aug - 22:37:36 10° SW 22:46:42 48° SE 22:55:30 10° ENE visible
09 Aug - 00:41:20 10° WSW 00:50:53 83° S 01:00:10 10° E visible
09 Aug - 02:46:14 10° W 02:55:38 83° SSW 03:04:50 10° ESE visible
09 Aug - 04:51:04 10° WNW 04:59:45 47° SW 05:08:20 10° SE daylight
09 Aug - 06:57:56 10° W 07:02:33 15° SW 07:07:11 10° SSW daylight
09 Aug - 20:14:04 10° SSE 20:18:42 14° SE 20:23:16 10° E visible
09 Aug - 22:12:34 10° SSW 22:21:35 46° SE 22:30:19 10° ENE visible
